This demonstration page uses our WeatherBlox Daily Observations layout. Learn more.

Left ArrowRight Arrow

39.29038, -76.61219

Hourly Observations for April 12, 2021

Temp ( °F °C ) Dew Point ( °F °C ) Humidity (%) Winds ( mph kmh ) Pressure ( in mb ) Visibility ( mi km ) Precip ( " mm )
12:54 am 00:54 Mostly Cloudy 61 16.1 54 12.2 78 78 N 7 11 29.57 1002 10 16.0934 N/A
1:32 am 01:32 Mostly Cloudy 60 15.6 55 12.8 84 84 N 6 9 29.59 1002 10 16.0934 N/A
1:54 am 01:54 Cloudy 60 15.6 56 13.3 86 86 NE 9 15 29.59 1002 10 16.0934 N/A
2:11 am 02:11 Mostly Cloudy 59 15 55 12.8 87 87 NE 9 15 29.59 1002 10 16.0934 N/A
2:20 am 02:20 Cloudy 59 15 55 12.8 87 87 ENE 8 13 29.59 1002 10 16.0934 N/A
2:39 am 02:39 Cloudy 58 14.4 54 12.2 87 87 NE 9 15 29.6 1002 10 16.0934 N/A
2:54 am 02:54 Cloudy 57 13.9 53 11.7 87 87 NE 10 17 29.6 1002 10 16.0934 N/A
3:20 am 03:20 Cloudy 56 13.3 52 11.1 87 87 NE 8 13 29.61 1003 10 16.0934 N/A
3:41 am 03:41 Cloudy 56 13.3 52 11.1 87 87 NNE 6 9 29.62 1003 10 16.0934 N/A
3:54 am 03:54 Cloudy 56 13.3 51 10.6 84 84 NE 8 13 29.61 1003 10 16.0934 N/A
4:30 am 04:30 Cloudy 55 12.8 50 10 83 83 ENE 7 11 29.61 1003 10 16.0934 N/A
4:54 am 04:54 Mostly Cloudy 54 12.2 50 10 87 87 ENE 6 9 29.62 1003 10 16.0934 N/A
5:40 am 05:40 Cloudy 54 12.2 49 9.4 83 83 ENE 7 11 29.63 1003 10 16.0934 N/A
5:54 am 05:54 Cloudy 54 12.2 50 10 87 87 ENE 8 13 29.64 1004 10 16.0934 N/A
6:42 am 06:42 Cloudy 54 12.2 49 9.4 83 83 NE 7 11 29.65 1004 10 16.0934 N/A
6:54 am 06:54 Cloudy 54 12.2 49 9.4 83 83 NNE 7 11 29.66 1004 10 16.0934 N/A
7:54 am 07:54 Cloudy 53 11.7 49 9.4 86 86 NE 9 15 29.67 1005 10 16.0934 N/A
8:54 am 08:54 Cloudy 53 11.7 48 8.9 83 83 E 9 15 29.68 1005 10 16.0934 N/A
9:54 am 09:54 Cloudy 53 11.7 48 8.9 83 83 ENE 8 13 29.71 1006 10 16.0934 N/A
10:35 am 10:35 Cloudy 53 11.7 48 8.9 83 83 NE 12 19 29.73 1007 10 16.0934 N/A
10:54 am 10:54 Cloudy 54 12.2 48 8.9 80 80 ENE 8 13 29.72 1007 10 16.0934 N/A
11:54 am 11:54 Cloudy 53 11.7 47 8.3 80 80 E 13 20 29.73 1007 10 16.0934 N/A
12:54 pm 12:54 Cloudy 55 12.8 47 8.3 74 74 ENE 9 15 29.74 1007 10 16.0934 N/A
1:45 pm 13:45 Mostly Cloudy 56 13.3 47 8.3 72 72 E 9 15 29.74 1007 10 16.0934 N/A
1:54 pm 13:54 Mostly Cloudy 57 13.9 47 8.3 69 69 ENE 9 15 29.74 1007 10 16.0934 N/A
2:54 pm 14:54 Mostly Cloudy 57 13.9 47 8.3 69 69 E 9 15 29.74 1007 10 16.0934 N/A
3:35 pm 15:35 Mostly Cloudy 56 13.3 48 8.9 75 75 E 10 17 29.75 1007 10 16.0934 N/A
3:54 pm 15:54 Mostly Cloudy 56 13.3 48 8.9 75 75 E 12 19 29.74 1007 10 16.0934 N/A
4:54 pm 16:54 Cloudy 55 12.8 47 8.3 74 74 ENE 13 20 29.76 1008 10 16.0934 N/A
5:54 pm 17:54 Cloudy 55 12.8 46 7.8 72 72 E 14 22 29.79 1009 10 16.0934 N/A
6:54 pm 18:54 Cloudy 53 11.7 45 7.2 74 74 ENE 13 20 29.82 1010 10 16.0934 N/A
7:54 pm 19:54 Cloudy with Light Rain 52 11.1 45 7.2 77 77 ENE 14 22 29.85 1011 10 16.0934 0.001 0.001
8:54 pm 20:54 Cloudy 51 10.6 45 7.2 80 80 ENE 13 20 29.88 1012 10 16.0934 0.01 0.254
9:54 pm 21:54 Cloudy 51 10.6 45 7.2 80 80 ENE 9 15 29.92 1013 10 16.0934 N/A
10:54 pm 22:54 Cloudy 50 10 44 6.7 80 80 E 8 13 29.93 1014 10 16.0934 N/A
11:13 pm 23:13 Cloudy with Light Rain 50 10 45 7.2 83 83 E 7 11 29.93 1014 10 16.0934 0.001 0.001
11:54 pm 23:54 Cloudy 50 10 45 7.2 83 83 E 5 7 29.93 1014 10 16.0934 0.001 0.001

Powered by AerisWeather